IRIDIUM 33 DEB, 33866

Orbit data source: Space-Track

IRIDIUM 33 DEB, 33866 is space debris in LEO originally from a launch on Sun, 14 Sep 1997 UTC launched from the Tyuratam Missile And Space Complex (TTMTR). The debris from Iridium 33, an American commercial communications satellite, has been tracked extensively since its accidental collision with the defunct Russian satellite Cosmos 2251 in 2009. This event, occurring at high speed in low Earth orbit (LEO), generated thousands of pieces of space debris, significantly increasing the risk of further collisions. The Iridium 33 debris cloud has impacted space traffic management and orbital debris mitigation strategies, making it a subject of ongoing study in space situational awareness.

Loading next visibility...
Identifier
33866, 1997-051AK
Orbit
LEO
Country
Flag of USUS
Related business
Manufacturer
Unknown
Mission
Spacecraft
Bus & Motor
Unknown
Mass
Unknown
Launch date (UTC)
1997-09-14 (28 years ago)
Launch vehicle
Unknown
Launch site
Tyuratam Missile And Space Complex (TTMTR)
Object type
Payload
Rocket body
Debris
Shape & HBR
Unknown shape, 0.2 m
Radar Cross Section
Small (<0.1 m²)

Expand to show TLE details & history
Last TLE update: 10 hours ago

TLE from 10 hours ago
0 IRIDIUM 33 DEB
1 33866U 97051AK  25302.90949311  .00001672  00000-0  66181-3 0  9997
2 33866  86.2989 111.5773 0111668 302.9490 189.3005 14.25080359861867
Epoch: 2025-10-29T21:49Z
TLE epoch observation values (Epoch: 2025-10-29T21:49:40.204Z)
Latitude
47.91692°
Longitude
-78.40229°
Altitude
895.017 km
Speed
7.368 km/s
True Right ascension
19h 09m 57s
True Declination
47° 44' 56"
Sunlit
Object was in daylight at epoch
Visualization orbit readout
Latitude
Unknown
Longitude
Unknown
Altitude
Unknown
Speed
Unknown
Apparent Right ascension
Unknown
Apparent Declination
Unknown
Sunlit
N/A
Visualization observer readout
Local Sidereal Time
03:40:20
Azimuth
Unknown
Elevation
Unknown
Doppler factor
Unknown
Orbital elements
Apogee altitude
885.416 km
Perigee altitude
724.986 km
Semi-major axis
7,183.338 km
Eccentricity
0.01117
Inclination
86.2989°
RAAN
111.5773°
Arg. of periapsis
302.949°
True anomaly
189.09651°
Mean anomaly
189.3005°
Eccentric anomaly
189.19823°
Mean motion
3.56495 °/min
Orbital period
100.98 mins
BSTAR
0.00066181
Loading maneuver chart data...
Computing Atmospheric mass density...

Documentation

Showing up to 5 results
|